Year,Month,Day,Hour,Minute,Value (Times are PST for temperature in C)
2011,05,18,00,00,5.90
2011,05,18,00,01,5.90
2011,05,18,00,02,5.90
2011,05,18,00,03,5.80
2011,05,18,00,04,5.80
2011,05,18,00,05,5.80
2011,05,18,00,06,5.80
2011,05,18,00,07,5.80
2011,05,18,00,08,5.80
2011,05,18,00,09,5.80
2011,05,18,00,10,5.70
2011,05,18,00,11,5.70
2011,05,18,00,12,5.70
2011,05,18,00,13,5.70
2011,05,18,00,14,5.70
2011,05,18,00,15,5.70
2011,05,18,00,16,5.70
2011,05,18,00,17,5.70
2011,05,18,00,18,5.70
2011,05,18,00,19,5.60
2011,05,18,00,20,5.60
2011,05,18,00,21,5.60
2011,05,18,00,22,5.60
2011,05,18,00,23,5.60
2011,05,18,00,24,5.60
2011,05,18,00,25,5.50
2011,05,18,00,26,5.50
2011,05,18,00,27,5.50
2011,05,18,00,28,5.50
2011,05,18,00,29,5.40
2011,05,18,00,30,5.40
2011,05,18,00,31,5.40
2011,05,18,00,32,5.40
2011,05,18,00,33,5.40
2011,05,18,00,34,5.40
2011,05,18,00,35,5.30
2011,05,18,00,36,5.30
2011,05,18,00,37,5.30
2011,05,18,00,38,5.30
2011,05,18,00,39,5.30
2011,05,18,00,40,5.30
2011,05,18,00,41,5.30
2011,05,18,00,42,5.20
2011,05,18,00,43,5.20
2011,05,18,00,44,5.20
2011,05,18,00,45,5.20
2011,05,18,00,46,5.20
2011,05,18,00,47,5.20
2011,05,18,00,48,5.20
2011,05,18,00,49,5.20
2011,05,18,00,50,5.20
2011,05,18,00,51,5.10
2011,05,18,00,52,5.10
2011,05,18,00,53,5.10
2011,05,18,00,54,5.10
2011,05,18,00,55,5.10
2011,05,18,00,56,5.10
2011,05,18,00,57,5.10
2011,05,18,00,58,5.10
2011,05,18,00,59,5.10
2011,05,18,01,00,5.10
2011,05,18,01,01,5.10
2011,05,18,01,02,5.10
2011,05,18,01,03,5.10
2011,05,18,01,04,5.10
2011,05,18,01,05,5.10
2011,05,18,01,06,5.10
2011,05,18,01,07,5.00
2011,05,18,01,08,5.00
2011,05,18,01,09,5.00
2011,05,18,01,10,5.00
2011,05,18,01,11,5.00
2011,05,18,01,12,5.00
2011,05,18,01,13,4.90
2011,05,18,01,14,4.90
2011,05,18,01,15,4.90
2011,05,18,01,16,4.90
2011,05,18,01,17,4.90
2011,05,18,01,18,4.90
2011,05,18,01,19,4.90
2011,05,18,01,20,4.90
2011,05,18,01,21,4.90
2011,05,18,01,22,4.90
2011,05,18,01,23,4.90
2011,05,18,01,24,4.90
2011,05,18,01,25,4.90
2011,05,18,01,26,4.90
2011,05,18,01,27,4.90
2011,05,18,01,28,4.90
2011,05,18,01,29,4.90
2011,05,18,01,30,4.90
2011,05,18,01,31,4.90
2011,05,18,01,32,4.90
2011,05,18,01,33,4.90
2011,05,18,01,34,4.80
2011,05,18,01,35,4.80
2011,05,18,01,36,4.80
2011,05,18,01,37,4.80
2011,05,18,01,38,4.80
2011,05,18,01,39,4.80
2011,05,18,01,40,4.80
2011,05,18,01,41,4.80
2011,05,18,01,42,4.80
2011,05,18,01,43,4.80
2011,05,18,01,44,4.80
2011,05,18,01,45,4.80
2011,05,18,01,46,4.80
2011,05,18,01,47,4.80
2011,05,18,01,48,4.80
2011,05,18,01,49,4.80
2011,05,18,01,50,4.80
2011,05,18,01,51,4.80
2011,05,18,01,52,4.80
2011,05,18,01,53,4.80
2011,05,18,01,54,4.70
2011,05,18,01,55,4.70
2011,05,18,01,56,4.70
2011,05,18,01,57,4.70
2011,05,18,01,58,4.70
2011,05,18,01,59,4.70
2011,05,18,02,00,4.70
2011,05,18,02,01,4.70
2011,05,18,02,02,4.70
2011,05,18,02,03,4.60
2011,05,18,02,04,4.60
2011,05,18,02,05,4.60
2011,05,18,02,06,4.60
2011,05,18,02,07,4.60
2011,05,18,02,08,4.60
2011,05,18,02,09,4.60
2011,05,18,02,10,4.60
2011,05,18,02,11,4.60
2011,05,18,02,12,4.60
2011,05,18,02,13,4.60
2011,05,18,02,14,4.60
2011,05,18,02,15,4.60
2011,05,18,02,16,4.50
2011,05,18,02,17,4.60
2011,05,18,02,18,4.60
2011,05,18,02,19,4.50
2011,05,18,02,20,4.60
2011,05,18,02,21,4.60
2011,05,18,02,22,4.60
2011,05,18,02,23,4.60
2011,05,18,02,24,4.60
2011,05,18,02,25,4.50
2011,05,18,02,26,4.50
2011,05,18,02,27,4.50
2011,05,18,02,28,4.50
2011,05,18,02,29,4.50
2011,05,18,02,30,4.50
2011,05,18,02,31,4.50
2011,05,18,02,32,4.50
2011,05,18,02,33,4.50
2011,05,18,02,34,4.50
2011,05,18,02,35,4.50
2011,05,18,02,36,4.50
2011,05,18,02,37,4.50
2011,05,18,02,38,4.40
2011,05,18,02,39,4.40
2011,05,18,02,40,4.40
2011,05,18,02,41,4.40
2011,05,18,02,42,4.40
2011,05,18,02,43,4.40
2011,05,18,02,44,4.40
2011,05,18,02,45,4.40
2011,05,18,02,46,4.40
2011,05,18,02,47,4.40
2011,05,18,02,48,4.40
2011,05,18,02,49,4.40
2011,05,18,02,50,4.40
2011,05,18,02,51,4.40
2011,05,18,02,52,4.40
2011,05,18,02,53,4.40
2011,05,18,02,54,4.40
2011,05,18,02,55,4.40
2011,05,18,02,56,4.40
2011,05,18,02,57,4.40
2011,05,18,02,58,4.40
2011,05,18,02,59,4.40
2011,05,18,03,00,4.40
2011,05,18,03,01,4.40
2011,05,18,03,02,4.30
2011,05,18,03,03,4.30
2011,05,18,03,06,4.30
2011,05,18,03,07,4.30
2011,05,18,03,08,4.30
2011,05,18,03,09,4.30
2011,05,18,03,10,4.30
2011,05,18,03,11,4.30
2011,05,18,03,12,4.20
2011,05,18,03,13,4.20
2011,05,18,03,14,4.20
2011,05,18,03,15,4.20
2011,05,18,03,16,4.20
2011,05,18,03,17,4.20
2011,05,18,03,18,4.20
2011,05,18,03,19,4.20
2011,05,18,03,20,4.20
2011,05,18,03,21,4.20
2011,05,18,03,22,4.10
2011,05,18,03,23,4.10
2011,05,18,03,24,4.10
2011,05,18,03,25,4.10
2011,05,18,03,26,4.10
2011,05,18,03,27,4.10
2011,05,18,03,28,4.10
2011,05,18,03,29,4.10
2011,05,18,03,30,4.10
2011,05,18,03,31,4.10
2011,05,18,03,32,4.10
2011,05,18,03,33,4.10
2011,05,18,03,34,4.10
2011,05,18,03,35,4.10
2011,05,18,03,36,4.10
2011,05,18,03,37,4.10
2011,05,18,03,38,4.10
2011,05,18,03,39,4.10
2011,05,18,03,40,4.10
2011,05,18,03,41,4.10
2011,05,18,03,42,4.10
2011,05,18,03,43,4.10
2011,05,18,03,44,4.10
2011,05,18,03,45,4.10
2011,05,18,03,46,4.10
2011,05,18,03,47,4.10
2011,05,18,03,48,4.10
2011,05,18,03,49,4.10
2011,05,18,03,50,4.10
2011,05,18,03,51,4.10
2011,05,18,03,52,4.10
2011,05,18,03,53,4.10
2011,05,18,03,54,4.10
2011,05,18,03,55,4.10
2011,05,18,03,56,4.10
2011,05,18,03,57,4.00
2011,05,18,03,58,4.00
2011,05,18,03,59,4.00
2011,05,18,04,00,4.00
2011,05,18,04,01,4.00
2011,05,18,04,02,4.00
2011,05,18,04,03,3.90
2011,05,18,04,04,3.90
2011,05,18,04,05,3.90
2011,05,18,04,06,3.90
2011,05,18,04,07,3.90
2011,05,18,04,08,3.90
2011,05,18,04,09,3.90
2011,05,18,04,10,3.90
2011,05,18,04,11,3.90
2011,05,18,04,12,3.90
2011,05,18,04,13,3.90
2011,05,18,04,14,3.90
2011,05,18,04,15,3.80
2011,05,18,04,16,3.80
2011,05,18,04,17,3.90
2011,05,18,04,18,3.90
2011,05,18,04,19,3.90
2011,05,18,04,20,3.90
2011,05,18,04,21,4.00
2011,05,18,04,22,3.90
2011,05,18,04,23,4.00
2011,05,18,04,24,3.90
2011,05,18,04,25,3.90
2011,05,18,04,26,3.90
2011,05,18,04,27,3.90
2011,05,18,04,28,3.90
2011,05,18,04,29,3.90
2011,05,18,04,30,3.90
2011,05,18,04,31,3.80
2011,05,18,04,32,3.80
2011,05,18,04,33,3.80
2011,05,18,04,34,3.80
2011,05,18,04,35,3.80
2011,05,18,04,36,3.80
2011,05,18,04,37,3.80
2011,05,18,04,38,3.80
2011,05,18,04,39,3.80
2011,05,18,04,40,3.70
2011,05,18,04,41,3.70
2011,05,18,04,42,3.70
2011,05,18,04,43,3.70
2011,05,18,04,44,3.70
2011,05,18,04,45,3.70
2011,05,18,04,46,3.70
2011,05,18,04,47,3.70
2011,05,18,04,48,3.70
2011,05,18,04,49,3.70
2011,05,18,04,50,3.70
2011,05,18,04,51,3.70
2011,05,18,04,52,3.70
2011,05,18,04,53,3.60
2011,05,18,04,54,3.60
2011,05,18,04,55,3.60
2011,05,18,04,56,3.60
2011,05,18,04,57,3.60
2011,05,18,04,58,3.60
2011,05,18,04,59,3.60
2011,05,18,05,00,3.60
2011,05,18,05,01,3.60
2011,05,18,05,02,3.60
2011,05,18,05,03,3.60
2011,05,18,05,04,3.60
2011,05,18,05,05,3.60
2011,05,18,05,06,3.60
2011,05,18,05,07,3.60
2011,05,18,05,08,3.60
2011,05,18,05,09,3.50
2011,05,18,05,10,3.50
2011,05,18,05,11,3.50
2011,05,18,05,12,3.50
2011,05,18,05,13,3.50
2011,05,18,05,14,3.50
2011,05,18,05,15,3.50
2011,05,18,05,16,3.40
2011,05,18,05,17,3.40
2011,05,18,05,18,3.40
2011,05,18,05,19,3.40
2011,05,18,05,20,3.40
2011,05,18,05,21,3.40
2011,05,18,05,22,3.40
2011,05,18,05,23,3.40
2011,05,18,05,24,3.40
2011,05,18,05,25,3.30
2011,05,18,05,26,3.30
2011,05,18,05,27,3.30
2011,05,18,05,28,3.30
2011,05,18,05,29,3.30
2011,05,18,05,30,3.30
2011,05,18,05,31,3.30
2011,05,18,05,32,3.30
2011,05,18,05,33,3.30
2011,05,18,05,34,3.30
2011,05,18,05,35,3.30
2011,05,18,05,36,3.30
2011,05,18,05,37,3.30
2011,05,18,05,38,3.30
2011,05,18,05,39,3.30
2011,05,18,05,40,3.30
2011,05,18,05,41,3.30
2011,05,18,05,42,3.30
2011,05,18,05,43,3.30
2011,05,18,05,44,3.30
2011,05,18,05,45,3.30
2011,05,18,05,46,3.20
2011,05,18,05,47,3.20
2011,05,18,05,48,3.20
2011,05,18,05,49,3.20
2011,05,18,05,50,3.20
2011,05,18,05,51,3.20
2011,05,18,05,52,3.20
2011,05,18,05,53,3.20
2011,05,18,05,54,3.20
2011,05,18,05,55,3.20
2011,05,18,05,56,3.20
2011,05,18,05,57,3.20
2011,05,18,05,58,3.20
2011,05,18,05,59,3.20
2011,05,18,06,00,3.20
2011,05,18,06,01,3.10
2011,05,18,06,02,3.10
2011,05,18,06,03,3.10
2011,05,18,06,04,3.10
2011,05,18,06,05,3.10
2011,05,18,06,06,3.10
2011,05,18,06,07,3.10
2011,05,18,06,08,3.10
2011,05,18,06,09,3.10
2011,05,18,06,10,3.10
2011,05,18,06,11,3.10
2011,05,18,06,12,3.10
2011,05,18,06,13,3.10
2011,05,18,06,14,3.10
2011,05,18,06,15,3.10
2011,05,18,06,16,3.10
2011,05,18,06,17,3.10
2011,05,18,06,18,3.10
2011,05,18,06,19,3.10
2011,05,18,06,20,3.10
2011,05,18,06,21,3.10
2011,05,18,06,22,3.10
2011,05,18,06,23,3.10
2011,05,18,06,24,3.10
2011,05,18,06,25,3.10
2011,05,18,06,26,3.10
2011,05,18,06,27,3.10
2011,05,18,06,28,3.10
2011,05,18,06,29,3.10
2011,05,18,06,30,3.10
2011,05,18,06,31,3.10
2011,05,18,06,32,3.20
2011,05,18,06,33,3.20
2011,05,18,06,34,3.20
2011,05,18,06,35,3.20
2011,05,18,06,36,3.20
2011,05,18,06,37,3.20
2011,05,18,06,38,3.20
2011,05,18,06,39,3.20
2011,05,18,06,40,3.20
2011,05,18,06,41,3.20
2011,05,18,06,42,3.20
2011,05,18,06,43,3.20
2011,05,18,06,44,3.20
2011,05,18,06,45,3.20
2011,05,18,06,46,3.20
2011,05,18,06,47,3.20
2011,05,18,06,48,3.20
2011,05,18,06,49,3.30
2011,05,18,06,50,3.30
2011,05,18,06,51,3.30
2011,05,18,06,52,3.30
2011,05,18,06,53,3.30
2011,05,18,06,54,3.30
2011,05,18,06,55,3.30
2011,05,18,06,56,3.30
2011,05,18,06,57,3.30
2011,05,18,06,58,3.30
2011,05,18,06,59,3.30
2011,05,18,07,00,3.30
2011,05,18,07,01,3.30
2011,05,18,07,02,3.30
2011,05,18,07,03,3.30
2011,05,18,07,04,3.30
2011,05,18,07,05,3.30
2011,05,18,07,06,3.40
2011,05,18,07,07,3.40
2011,05,18,07,08,3.40
2011,05,18,07,09,3.40
2011,05,18,07,10,3.40
2011,05,18,07,11,3.40
2011,05,18,07,12,3.40
2011,05,18,07,13,3.40
2011,05,18,07,14,3.40
2011,05,18,07,15,3.40
2011,05,18,07,16,3.40
2011,05,18,07,17,3.50
2011,05,18,07,18,3.50
2011,05,18,07,19,3.50
2011,05,18,07,20,3.50
2011,05,18,07,21,3.50
2011,05,18,07,22,3.60
2011,05,18,07,23,3.60
2011,05,18,07,24,3.60
2011,05,18,07,25,3.60
2011,05,18,07,26,3.60
2011,05,18,07,27,3.70
2011,05,18,07,28,3.70
2011,05,18,07,29,3.70
2011,05,18,07,30,3.70
2011,05,18,07,31,3.70
2011,05,18,07,32,3.80
2011,05,18,07,33,3.80
2011,05,18,07,34,3.80
2011,05,18,07,35,3.80
2011,05,18,07,36,3.90
2011,05,18,07,37,3.90
2011,05,18,07,38,3.90
2011,05,18,07,39,3.90
2011,05,18,07,40,3.90
2011,05,18,07,41,4.00
2011,05,18,07,42,4.00
2011,05,18,07,43,4.00
2011,05,18,07,44,4.10
2011,05,18,07,45,4.10
2011,05,18,07,46,4.10
2011,05,18,07,47,4.10
2011,05,18,07,48,4.10
2011,05,18,07,49,4.10
2011,05,18,07,50,4.20
2011,05,18,07,51,4.20
2011,05,18,07,52,4.20
2011,05,18,07,53,4.20
2011,05,18,07,54,4.30
2011,05,18,07,55,4.30
2011,05,18,07,56,4.30
2011,05,18,07,57,4.30
2011,05,18,07,58,4.40
2011,05,18,07,59,4.40
2011,05,18,08,00,4.40
2011,05,18,08,01,4.50
2011,05,18,08,02,4.50
2011,05,18,08,03,4.60
2011,05,18,08,04,4.60
2011,05,18,08,05,4.60
2011,05,18,08,06,4.60
2011,05,18,08,07,4.70
2011,05,18,08,08,4.70
2011,05,18,08,09,4.70
2011,05,18,08,10,4.80
2011,05,18,08,11,4.90
2011,05,18,08,12,4.90
2011,05,18,08,13,5.00
2011,05,18,08,14,5.10
2011,05,18,08,15,5.10
2011,05,18,08,16,5.20
2011,05,18,08,17,5.20
2011,05,18,08,18,5.30
2011,05,18,08,19,5.40
2011,05,18,08,20,5.40
2011,05,18,08,21,5.50
2011,05,18,08,22,5.50
2011,05,18,08,23,5.60
2011,05,18,08,24,5.60
2011,05,18,08,25,5.70
2011,05,18,08,26,5.80
2011,05,18,08,27,5.80
2011,05,18,08,28,5.80
2011,05,18,08,29,5.90
2011,05,18,08,30,5.90
2011,05,18,08,31,6.00
2011,05,18,08,32,6.10
2011,05,18,08,33,6.10
2011,05,18,08,34,6.20
2011,05,18,08,35,6.20
2011,05,18,08,36,6.20
2011,05,18,08,37,6.30
2011,05,18,08,38,6.30
2011,05,18,08,39,6.40
2011,05,18,08,40,6.40
2011,05,18,08,41,6.50
2011,05,18,08,42,6.60
2011,05,18,08,43,6.60
2011,05,18,08,44,6.70
2011,05,18,08,45,6.80
2011,05,18,08,46,6.80
2011,05,18,08,47,6.80
2011,05,18,08,48,6.90
2011,05,18,08,49,6.90
2011,05,18,08,50,7.00
2011,05,18,08,51,7.00
2011,05,18,08,52,7.10
2011,05,18,08,53,7.20
2011,05,18,08,54,7.20
2011,05,18,08,55,7.20
2011,05,18,08,56,7.30
2011,05,18,08,57,7.30
2011,05,18,08,58,7.40
2011,05,18,08,59,7.40
2011,05,18,09,00,7.50
2011,05,18,09,01,7.50
2011,05,18,09,02,7.60
2011,05,18,09,03,7.60
2011,05,18,09,04,7.70
2011,05,18,09,05,7.80
2011,05,18,09,06,7.80
2011,05,18,09,07,7.90
2011,05,18,09,08,7.90
2011,05,18,09,09,8.00
2011,05,18,09,10,8.00
2011,05,18,09,11,8.10
2011,05,18,09,12,8.20
2011,05,18,09,13,8.20
2011,05,18,09,14,8.20
2011,05,18,09,15,8.30
2011,05,18,09,16,8.40
2011,05,18,09,17,8.40
2011,05,18,09,18,8.50
2011,05,18,09,19,8.60
2011,05,18,09,20,8.60
2011,05,18,09,21,8.70
2011,05,18,09,22,8.80
2011,05,18,09,23,8.80
2011,05,18,09,24,8.90
2011,05,18,09,25,8.90
2011,05,18,09,26,9.00
2011,05,18,09,27,9.10
2011,05,18,09,28,9.10
2011,05,18,09,29,9.10
2011,05,18,09,30,9.20
2011,05,18,09,31,9.20
2011,05,18,09,32,9.20
2011,05,18,09,33,9.30
2011,05,18,09,34,9.30
2011,05,18,09,35,9.30
2011,05,18,09,36,9.40
2011,05,18,09,37,9.50
2011,05,18,09,38,9.50
2011,05,18,09,39,9.60
2011,05,18,09,40,9.70
2011,05,18,09,41,9.70
2011,05,18,09,42,9.80
2011,05,18,09,43,9.80
2011,05,18,09,44,9.80
2011,05,18,09,45,9.90
2011,05,18,09,46,9.90
2011,05,18,09,47,10.00
2011,05,18,09,48,10.00
2011,05,18,09,49,10.10
2011,05,18,09,50,10.10
2011,05,18,09,51,10.10
2011,05,18,09,52,10.10
2011,05,18,09,53,10.20
2011,05,18,09,54,10.20
2011,05,18,09,55,10.20
2011,05,18,09,56,10.20
2011,05,18,09,57,10.30
2011,05,18,09,58,10.30
2011,05,18,09,59,10.30
2011,05,18,10,00,10.30
2011,05,18,10,01,10.40
2011,05,18,10,02,10.40
2011,05,18,10,03,10.50
2011,05,18,10,04,10.50
2011,05,18,10,05,10.60
2011,05,18,10,06,10.60
2011,05,18,10,07,10.60
2011,05,18,10,08,10.70
2011,05,18,10,09,10.80
2011,05,18,10,10,10.80
2011,05,18,10,11,10.90
2011,05,18,10,12,10.90
2011,05,18,10,13,11.00
2011,05,18,10,14,11.10
2011,05,18,10,15,11.10
2011,05,18,10,16,11.20
2011,05,18,10,17,11.20
2011,05,18,10,18,11.20
2011,05,18,10,19,11.30
2011,05,18,10,20,11.30
2011,05,18,10,21,11.40
2011,05,18,10,22,11.50
2011,05,18,10,23,11.60
2011,05,18,10,24,11.80
2011,05,18,10,25,11.80
2011,05,18,10,26,11.90
2011,05,18,10,27,11.90
2011,05,18,10,28,12.00
2011,05,18,10,29,12.10
2011,05,18,10,30,12.20
2011,05,18,10,31,12.20
2011,05,18,10,32,12.30
2011,05,18,10,33,12.40
2011,05,18,10,34,12.50
2011,05,18,10,35,12.50
2011,05,18,10,36,12.60
2011,05,18,10,37,12.70
2011,05,18,10,38,12.70
2011,05,18,10,39,12.80
2011,05,18,10,40,12.90
2011,05,18,10,41,13.00
2011,05,18,10,42,13.10
2011,05,18,10,43,13.20
2011,05,18,10,44,13.20
2011,05,18,10,45,13.30
2011,05,18,10,46,13.40
2011,05,18,10,47,13.40
2011,05,18,10,48,13.50
2011,05,18,10,49,13.50
2011,05,18,10,50,13.60
2011,05,18,10,51,13.70
2011,05,18,10,52,13.70
2011,05,18,10,53,13.80
2011,05,18,10,54,13.90
2011,05,18,10,55,13.90
2011,05,18,10,56,14.00
2011,05,18,10,57,14.10
2011,05,18,10,58,14.20
2011,05,18,10,59,14.20
2011,05,18,11,00,14.30
2011,05,18,11,01,14.30
2011,05,18,11,02,14.40
2011,05,18,11,03,14.40
2011,05,18,11,04,14.50
2011,05,18,11,05,14.60
2011,05,18,11,06,14.70
2011,05,18,11,07,14.80
2011,05,18,11,08,14.90
2011,05,18,11,09,15.00
2011,05,18,11,10,15.00
2011,05,18,11,11,15.00
2011,05,18,11,12,15.00
2011,05,18,11,13,15.10
2011,05,18,11,14,15.20
2011,05,18,11,15,15.30
2011,05,18,11,16,15.30
2011,05,18,11,17,15.30
2011,05,18,11,18,15.30
2011,05,18,11,19,15.30
2011,05,18,11,20,15.30
2011,05,18,11,21,15.30
2011,05,18,11,22,15.30
2011,05,18,11,23,15.30
2011,05,18,11,24,15.30
2011,05,18,11,25,15.30
2011,05,18,11,26,15.40
2011,05,18,11,27,15.50
2011,05,18,11,28,15.50
2011,05,18,11,29,15.60
2011,05,18,11,30,15.60
2011,05,18,11,31,15.60
2011,05,18,11,32,15.70
2011,05,18,11,33,15.80
2011,05,18,11,34,15.80
2011,05,18,11,35,15.90
2011,05,18,11,36,15.80
2011,05,18,11,37,15.70
2011,05,18,11,38,15.60
2011,05,18,11,39,15.60
2011,05,18,11,40,15.60
2011,05,18,11,41,15.60
2011,05,18,11,42,15.60
2011,05,18,11,43,15.60
2011,05,18,11,44,15.60
2011,05,18,11,45,15.60
2011,05,18,11,46,15.70
2011,05,18,11,47,15.70
2011,05,18,11,48,15.80
2011,05,18,11,49,15.80
2011,05,18,11,50,15.80
2011,05,18,11,51,15.90
2011,05,18,11,52,15.90
2011,05,18,11,53,15.90
2011,05,18,11,54,15.90
2011,05,18,11,55,15.90
2011,05,18,11,56,16.00
2011,05,18,11,57,16.00
2011,05,18,11,58,16.00
2011,05,18,11,59,16.00
2011,05,18,12,00,16.00
2011,05,18,12,01,16.00
2011,05,18,12,02,16.00
2011,05,18,12,03,16.00
2011,05,18,12,04,16.00
2011,05,18,12,05,16.00
2011,05,18,12,06,16.10
2011,05,18,12,07,16.10
2011,05,18,12,08,16.20
2011,05,18,12,09,16.20
2011,05,18,12,10,16.30
2011,05,18,12,11,16.40
2011,05,18,12,12,16.50
2011,05,18,12,13,16.60
2011,05,18,12,14,16.70
2011,05,18,12,15,16.70
2011,05,18,12,16,16.70
2011,05,18,12,17,16.80
2011,05,18,12,18,16.80
2011,05,18,12,19,16.80
2011,05,18,12,20,16.80
2011,05,18,12,21,16.80
2011,05,18,12,22,16.80
2011,05,18,12,23,16.80
2011,05,18,12,24,16.80
2011,05,18,12,25,16.80
2011,05,18,12,26,16.80
2011,05,18,12,27,16.90
2011,05,18,12,28,17.00
2011,05,18,12,29,17.00
2011,05,18,12,30,17.10
2011,05,18,12,31,17.20
2011,05,18,12,32,17.30
2011,05,18,12,33,17.40
2011,05,18,12,34,17.40
2011,05,18,12,35,17.50
2011,05,18,12,36,17.50
2011,05,18,12,37,17.50
2011,05,18,12,38,17.50
2011,05,18,12,39,17.40
2011,05,18,12,40,17.30
2011,05,18,12,41,17.30
2011,05,18,12,42,17.20
2011,05,18,12,43,17.20
2011,05,18,12,44,17.10
2011,05,18,12,45,17.00
2011,05,18,12,46,17.00
2011,05,18,12,47,16.90
2011,05,18,12,48,16.80
2011,05,18,12,49,16.70
2011,05,18,12,50,16.70
2011,05,18,12,51,16.70
2011,05,18,12,52,16.80
2011,05,18,12,53,16.80
2011,05,18,12,54,16.80
2011,05,18,12,55,16.70
2011,05,18,12,56,16.70
2011,05,18,12,57,16.70
2011,05,18,12,58,16.70
2011,05,18,12,59,16.70
2011,05,18,13,00,16.80
2011,05,18,13,01,16.80
2011,05,18,13,02,16.80
2011,05,18,13,03,16.80
2011,05,18,13,04,16.80
2011,05,18,13,05,16.80
2011,05,18,13,06,16.90
2011,05,18,13,07,16.90
2011,05,18,13,08,17.00
2011,05,18,13,09,17.10
2011,05,18,13,10,17.10
2011,05,18,13,11,17.10
2011,05,18,13,12,17.10
2011,05,18,13,13,17.10
2011,05,18,13,14,17.10
2011,05,18,13,15,17.10
2011,05,18,13,16,17.10
2011,05,18,13,17,17.10
2011,05,18,13,18,17.20
2011,05,18,13,19,17.30
2011,05,18,13,20,17.40
2011,05,18,13,21,17.50
2011,05,18,13,22,17.60
2011,05,18,13,23,17.70
2011,05,18,13,24,17.80
2011,05,18,13,25,17.80
2011,05,18,13,26,17.80
2011,05,18,13,27,17.80
2011,05,18,13,28,17.80
2011,05,18,13,29,17.80
2011,05,18,13,30,17.90
2011,05,18,13,31,18.00
2011,05,18,13,32,18.10
2011,05,18,13,33,18.20
2011,05,18,13,34,18.30
2011,05,18,13,35,18.30
2011,05,18,13,36,18.30
2011,05,18,13,37,18.40
2011,05,18,13,38,18.50
2011,05,18,13,39,18.50
2011,05,18,13,40,18.60
2011,05,18,13,41,18.70
2011,05,18,13,42,18.70
2011,05,18,13,43,18.70
2011,05,18,13,44,18.70
2011,05,18,13,45,18.60
2011,05,18,13,46,18.60
2011,05,18,13,47,18.50
2011,05,18,13,48,18.50
2011,05,18,13,49,18.60
2011,05,18,13,50,18.50
2011,05,18,13,51,18.50
2011,05,18,13,52,18.50
2011,05,18,13,53,18.40
2011,05,18,13,54,18.50
2011,05,18,13,55,18.60
2011,05,18,13,56,18.60
2011,05,18,13,57,18.70
2011,05,18,13,58,18.80
2011,05,18,13,59,18.90
2011,05,18,14,00,18.90
2011,05,18,14,01,19.00
2011,05,18,14,02,19.10
2011,05,18,14,03,19.20
2011,05,18,14,04,19.20
2011,05,18,14,05,19.20
2011,05,18,14,06,19.10
2011,05,18,14,07,19.10
2011,05,18,14,08,19.00
2011,05,18,14,09,19.00
2011,05,18,14,10,19.00
2011,05,18,14,11,19.00
2011,05,18,14,12,18.90
2011,05,18,14,13,18.80
2011,05,18,14,14,18.70
2011,05,18,14,15,18.70
2011,05,18,14,16,18.70
2011,05,18,14,17,18.70
2011,05,18,14,18,18.70
2011,05,18,14,19,18.70
2011,05,18,14,20,18.90
2011,05,18,14,21,19.00
2011,05,18,14,22,19.10
2011,05,18,14,23,19.20
2011,05,18,14,24,19.20
2011,05,18,14,25,19.20
2011,05,18,14,26,19.20
2011,05,18,14,27,19.20
2011,05,18,14,28,19.30
2011,05,18,14,29,19.30
2011,05,18,14,30,19.40
2011,05,18,14,31,19.40
2011,05,18,14,32,19.40
2011,05,18,14,33,19.40
2011,05,18,14,34,19.40
2011,05,18,14,35,19.50
2011,05,18,14,36,19.50
2011,05,18,14,37,19.60
2011,05,18,14,38,19.70
2011,05,18,14,39,19.70
2011,05,18,14,40,19.70
2011,05,18,14,41,19.80
2011,05,18,14,42,19.80
2011,05,18,14,43,19.90
2011,05,18,14,44,19.90
2011,05,18,14,45,19.90
2011,05,18,14,46,19.90
2011,05,18,14,47,19.90
2011,05,18,14,48,19.80
2011,05,18,14,49,19.80
2011,05,18,14,50,19.80
2011,05,18,14,51,19.80
2011,05,18,14,52,19.90
2011,05,18,14,53,19.90
2011,05,18,14,54,19.90
2011,05,18,14,55,20.00
2011,05,18,14,56,20.10
2011,05,18,14,57,20.20
2011,05,18,14,58,20.40
2011,05,18,14,59,20.50
2011,05,18,15,00,20.60
2011,05,18,15,01,20.70
2011,05,18,15,02,20.70
2011,05,18,15,03,20.70
2011,05,18,15,04,20.70
2011,05,18,15,05,20.60
2011,05,18,15,06,20.50
2011,05,18,15,07,20.40
2011,05,18,15,08,20.30
2011,05,18,15,09,20.20
2011,05,18,15,10,20.10
2011,05,18,15,11,20.00
2011,05,18,15,12,19.90
2011,05,18,15,13,19.80
2011,05,18,15,14,19.70
2011,05,18,15,15,19.70
2011,05,18,15,16,19.70
2011,05,18,15,17,19.80
2011,05,18,15,18,19.80
2011,05,18,15,19,19.80
2011,05,18,15,20,19.90
2011,05,18,15,21,19.90
2011,05,18,15,22,19.90
2011,05,18,15,23,20.00
2011,05,18,15,24,20.00
2011,05,18,15,25,20.00
2011,05,18,15,26,20.00
2011,05,18,15,27,20.10
2011,05,18,15,28,20.10
2011,05,18,15,29,20.20
2011,05,18,15,30,20.20
2011,05,18,15,31,20.20
2011,05,18,15,32,20.20
2011,05,18,15,33,20.20
2011,05,18,15,34,20.20
2011,05,18,15,35,20.10
2011,05,18,15,36,20.20
2011,05,18,15,37,20.10
2011,05,18,15,38,20.10
2011,05,18,15,39,20.20
2011,05,18,15,40,20.20
2011,05,18,15,41,20.20
2011,05,18,15,42,20.20
2011,05,18,15,43,20.20
2011,05,18,15,44,20.20
2011,05,18,15,45,20.30
2011,05,18,15,46,20.30
2011,05,18,15,47,20.30
2011,05,18,15,48,20.30
2011,05,18,15,49,20.30
2011,05,18,15,50,20.30
2011,05,18,15,51,20.20
2011,05,18,15,52,20.20
2011,05,18,15,53,20.20
2011,05,18,15,54,20.20
2011,05,18,15,55,20.20
2011,05,18,15,56,20.20
2011,05,18,15,57,20.20
2011,05,18,15,58,20.20
2011,05,18,15,59,20.20
2011,05,18,16,00,20.10
2011,05,18,16,01,20.00
2011,05,18,16,02,19.90
2011,05,18,16,03,19.90
2011,05,18,16,04,19.80
2011,05,18,16,05,19.80
2011,05,18,16,06,19.80
2011,05,18,16,07,19.70
2011,05,18,16,08,19.70
2011,05,18,16,09,19.70
2011,05,18,16,10,19.60
2011,05,18,16,11,19.60
2011,05,18,16,12,19.60
2011,05,18,16,13,19.50
2011,05,18,16,14,19.50
2011,05,18,16,15,19.50
2011,05,18,16,16,19.50
2011,05,18,16,17,19.60
2011,05,18,16,18,19.60
2011,05,18,16,19,19.60
2011,05,18,16,20,19.60
2011,05,18,16,21,19.60
2011,05,18,16,22,19.60
2011,05,18,16,23,19.60
2011,05,18,16,24,19.60
2011,05,18,16,25,19.60
2011,05,18,16,26,19.60
2011,05,18,16,27,19.60
2011,05,18,16,28,19.70
2011,05,18,16,29,19.70
2011,05,18,16,30,19.70
2011,05,18,16,31,19.70
2011,05,18,16,32,19.70
2011,05,18,16,33,19.70
2011,05,18,16,34,19.80
2011,05,18,16,35,19.80
2011,05,18,16,36,19.90
2011,05,18,16,37,19.80
2011,05,18,16,38,19.80
2011,05,18,16,39,19.90
2011,05,18,16,40,19.80
2011,05,18,16,41,19.80
2011,05,18,16,42,19.80
2011,05,18,16,43,19.70
2011,05,18,16,44,19.60
2011,05,18,16,45,19.50
2011,05,18,16,46,19.50
2011,05,18,16,47,19.40
2011,05,18,16,48,19.40
2011,05,18,16,49,19.40
2011,05,18,16,50,19.40
2011,05,18,16,51,19.40
2011,05,18,16,52,19.40
2011,05,18,16,53,19.30
2011,05,18,16,54,19.30
2011,05,18,16,55,19.30
2011,05,18,16,56,19.40
2011,05,18,16,57,19.40
2011,05,18,16,58,19.50
2011,05,18,16,59,19.60
2011,05,18,17,00,19.60
2011,05,18,17,01,19.50
2011,05,18,17,02,19.50
2011,05,18,17,03,19.50
2011,05,18,17,04,19.50
2011,05,18,17,05,19.50
2011,05,18,17,06,19.50
2011,05,18,17,07,19.50
2011,05,18,17,08,19.60
2011,05,18,17,09,19.60
2011,05,18,17,10,19.60
2011,05,18,17,11,19.60
2011,05,18,17,12,19.60
2011,05,18,17,13,19.50
2011,05,18,17,14,19.50
2011,05,18,17,15,19.50
2011,05,18,17,16,19.50
2011,05,18,17,17,19.50
2011,05,18,17,18,19.50
2011,05,18,17,19,19.50
2011,05,18,17,20,19.50
2011,05,18,17,21,19.40
2011,05,18,17,22,19.40
2011,05,18,17,23,19.40
2011,05,18,17,24,19.40
2011,05,18,17,25,19.40
2011,05,18,17,26,19.50
2011,05,18,17,27,19.50
2011,05,18,17,28,19.50
2011,05,18,17,29,19.50
2011,05,18,17,30,19.50
2011,05,18,17,31,19.50
2011,05,18,17,32,19.50
2011,05,18,17,33,19.50
2011,05,18,17,34,19.60
2011,05,18,17,35,19.60
2011,05,18,17,36,19.50
2011,05,18,17,37,19.50
2011,05,18,17,38,19.40
2011,05,18,17,39,19.20
2011,05,18,17,40,19.20
2011,05,18,17,41,19.10
2011,05,18,17,42,19.10
2011,05,18,17,43,19.10
2011,05,18,17,44,19.10
2011,05,18,17,45,19.10
2011,05,18,17,46,19.10